User: anonymous   Login
Location: Unspecified
(0.0000°N, 0.0000°E)
Time: 01:27:23
(UTC+02:00)
Language:

Iridium 39 - Orbit

View from above orbital plane
View from above orbital plane
View from above satellite
View from above satellite

Ground track
Ground track

The orbit data is extracted from the following two-line orbital elements,

1 25042U 97069D   17293.46186674  .00000166  00000-0  40858-4 0  9990
2 25042  86.3909 325.7728 0016841 254.3106 105.6238 14.46189384 44826
Epoch (UTC): 20 October 2017 11:05:05
Eccentricity: 0.0016841
inclination: 86.3909°
perigee height: 726 km
apogee height: 750 km
right ascension of ascending node: 325.7728°
argument of perigee: 254.3106°
revolutions per day: 14.46189384
mean anomaly at epoch: 105.6238°
orbit number at epoch: 4482

The dashed part of the orbit path shows where the satellite is in the earth's shadow,  

DLR